OneWeb SL0064

operational
NORAD ID: 45433 Int'l Des: 2020-020 Owner: ONEWEB Country: UK Constellation: oneweb
LEOCIRCULARPOLARONEWEB_TYPE

关于 OneWeb SL0064

正在加载描述...

实时位置

正在加载3D地球...

即将过境

高度历史

Altitude vs Time

uPlot chart will show altitude changes over time

两行轨道根数

1 45433U 20020K 25303.76130022 -.00000470 00000-0 -13610-2 0 9993
2 45433 87.8842 66.7616 0001774 97.5422 262.5908 13.11418189272615
Epoch: Oct 30, 2025 • Age: 7 hours

当前状态

高度 1219.7 km
速度 7.25 km/s
星下点 13.11°N, 2.64°E
发射日期 Mar 21, 2020
运行时间 5.6 years
类型 internet

技术详情

分类 Payload
质量 148.00 kg
干质量 140.00 kg
总质量 148.00 kg
长度 1.30 m
直径 1.00 m
跨度 5.00 m
形状 Trapezoid+2 pan
制造商 ONEWUS
平台类型 ARROW
阶段状态 In Orbit
所有者/国家 ONEWEB/UK

大型星座

Loading constellations...